Location: Poughquag
(41.6090°N, 73.6820°W)
Time: 12:35:46
(UTC-04:00)

ITAMSAT 1 - Visible Passes

Search period start: 25 July 2024 00:00
Search period end: 04 August 2024 00:00
Orbit: 783 x 794 km, 98.8° (Epoch: 24 July)

Date Brightness Start Highest point End Pass type
(mag) Time Alt. Az. Time Alt. Az. Time Alt. Az.
25 Jul 7.7 21:11:56 10° SSE 21:17:04 68° ENE 21:22:15 10° N visible
25 Jul 10.1 22:54:10 10° WSW 22:56:59 15° W 22:59:47 10° WNW visible
26 Jul 8.4 20:42:35 10° SE 20:47:17 37° ENE 20:52:02 10° N visible
26 Jul 9.4 22:22:21 10° SSW 22:26:45 28° W 22:31:11 10° NW visible
27 Jul 8.3 21:51:36 10° S 21:56:39 52° W 22:01:45 10° NNW visible
28 Jul 7.6 21:21:30 10° SSE 21:26:42 83° ENE 21:31:56 10° NNW visible
28 Jul 10.2 23:04:58 10° WSW 23:06:44 12° W 23:08:31 10° WNW visible
29 Jul 8.2 20:51:58 10° SE 20:56:52 44° ENE 21:01:48 10° N visible
29 Jul 9.6 22:32:25 10° SW 22:36:27 23° W 22:40:33 10° NW visible
30 Jul 8.7 22:01:32 11° S 22:06:19 43° W 22:11:17 10° NNW visible
31 Jul 7.7 21:31:17 11° SSE 21:36:19 82° WSW 21:41:34 10° NNW visible
01 Aug 7.9 21:01:25 10° SSE 21:06:27 54° ENE 21:11:32 10° N visible
01 Aug 9.9 22:42:35 10° SW 22:46:11 19° W 22:49:49 10° NW visible
02 Aug 9.0 22:11:30 11° SSW 22:16:00 35° W 22:20:46 10° NNW visible
03 Aug 7.9 21:41:15 13° S 21:45:57 67° WSW 21:51:10 10° NNW visible
